Regional Weather Roundup
Issued by NWS Jackson, KY

Home | Current Version | Previous Version | Text Only | Print | Product List | Glossary On
Versions: 1 2 3 4 5 6 7 8 9 10 11 12 13 14 15 16 17 18 19 20 21 22 23 24 25 26 27 28
000
ASUS43 KJKL 231310
RWRJKL

EAST KENTUCKY HOURLY WEATHER ROUNDUP
NATIONAL WEATHER SERVICE JACKSON KY
900 AM EDT FRI JUN 23 2017

NOTE: "FAIR" INDICATES FEW OR NO CLOUDS BELOW 12,000 FEET WITH
NO SIGNIFICANT WEATHER AND/OR OBSTRUCTIONS TO VISIBILITY.

* THESE REPORTS ARE NOT UNDER NWS QUALITY CONTROL AND MAY NOT
  REPORT WEATHER SUCH AS PRECIPITATION AND FOG.

KYZ079-080-083-085-087-088-110-112-115-119-120-231400
...EASTERN KENTUCKY...

CITY           SKY/WX    TMP DP  RH WIND       PRES   REMARKS
JACKSON        CLOUDY    74  70  87 VRB5      29.91R
LONDON         CLOUDY    75  69  81 SW10G18   29.92R
SOMERSET*      CLOUDY    73  72  94 S8        29.90S
MONTICELLO*    CLOUDY    76  71  85 VRB3G17   29.91S
WILLIAMSBURG*  CLOUDY    72  72 100 S5        29.92S
MIDDLESBORO*   CLOUDY    74  69  86 S14       29.94F
HARLAN APT*    CLOUDY    70  66  88 CALM      29.96S
PIKE CO APT*   CLOUDY    73  72  97 S6        29.92S
BIG SANDY APT* CLOUDY    75  70  84 SW10G16   29.90S
MOREHEAD APT*  CLOUDY    77  72  83 SW12G22   29.86S HAZE
$$

KYZ035-036-041-042-044-050-067-078-099-231400
...CENTRAL KENTUCKY...

CITY           SKY/WX    TMP DP  RH WIND       PRES   REMARKS
MT STERLING*   CLOUDY    77  72  83 SW13G24   29.86S
FLEMING/MASON* CLOUDY    75  72  88 SW16G29   29.84S
DANVILLE*      PTSUNNY   77  70  78 SW13G22   29.87S
LEXINGTON      CLOUDY    78  70  76 SW17G28   29.84S
FRANKFORT      CLOUDY    78  71  79 SW17G25   29.81S
LOUISVILLE     PTSUNNY   79  73  82 S12       29.79S
LEBANON*         N/A     77  72  83 S13G26    29.84S
GLASGOW*       PTSUNNY   78  71  78 S9        29.84F
BOWLING GREEN  CLOUDY    80  73  79 S17G26    29.82S
$$

KYZ091>093-OHZ055-061-077-WVZ005-015-034-035-042-231400
...SOUTHERN OHIO/WEST VIRGINIA...

CITY           SKY/WX    TMP DP  RH WIND       PRES   REMARKS
COVINGTON      CLOUDY    74  73  97 S13       29.77S
COLUMBUS       CLOUDY    74  74 100 S13       29.74F
DAYTON         CLOUDY    75  73  93 SW14      29.74F
WILMINGTON     LGT RAIN  73  73 100 SW10      29.76F FOG
HUNTINGTON     CLOUDY    77  70  79 S9        29.84S
CHARLESTON     PTSUNNY   78  68  71 SW10      29.86S
PINEVILLE*     CLOUDY    71  70  96 MISG      30.00F
BECKLEY        PTSUNNY   70  65  84 SW15G21   29.98S
BLUEFIELD      LGT RAIN  69  65  86 SW7       30.02S
LOGAN CO APT*  CLOUDY    73  68  83 VRB6G15   29.92S
$$

VAZ002-007-008-TNZ017-027-036-066-071-231400
...SOUTHWEST VIRGINIA/EAST TENNESSEE...

CITY           SKY/WX    TMP DP  RH WIND       PRES   REMARKS
WISE*          LGT RAIN  68  68 100 SW21G32   30.03S
JONESVILLE*    PTSUNNY   72  68  88 SW3       29.99S
ABINGDON*      CLOUDY    73  71  95 W6        30.02R
BRISTOL        CLOUDY    74  70  87 N3        29.99S
MORRISTOWN*    MOSUNNY   75  72  88 VRB5      29.96S
SEVIERVILLE*   MOSUNNY   73  72  94 CALM      29.95S
KNOXVILLE      CLOUDY    76  67  73 SW15      29.94S
LAFOLLETTE*    CLOUDY    73  70  88 S6        29.97S
OAK RIDGE      HVY RAIN  72  69  90 VRB7      29.96S FOG
CROSSVILLE     CLOUDY    71  69  93 VRB7      29.97S
NASHVILLE      PTSUNNY   80  71  74 S17       29.85S
$$

...KEY TO REMARKS...
VSB - VISIBILITY IN MILES
WCI - WIND CHILL INDEX
HX  - HEAT INDEX

$$




USA.gov is the U.S. government's official web portal to all federal, state and local government web resources and services.